Weather History for Ruston, LA

Change the Weather History Date:

Saturday, October 5, 2013

  Actual Average Record
Temperature  
Mean Temperature 78 °F -  
Max Temperature 85 °F 83 °F 94 °F (1938)
Min Temperature 70 °F 55 °F 35 °F (2010)
Cooling Degree Days 12    
Growing Degree Days 28 (Base 50)    
Moisture  
Dew Point 73 °F    
Average Humidity 93    
Maximum Humidity 100    
Minimum Humidity 63    
Precipitation  
Precipitation 0.16 in - - ()
Sea Level Pressure  
Sea Level Pressure 29.99 in    
Wind  
Wind Speed 2 mph (South)    
Max Wind Speed 9 mph    
Max Gust Speed 16 mph    
Visibility 8 miles    
Events Fog , Rain , Thunderstorm    
Averages and records for this station are not official NWS values.
T = Trace of Precipitation, MM = Missing Value Source: NWS Daily Summary

Daily Weather History Graph

Daily Weather History Graph

Search for Another Location

Airport:

Trip Planner

Search our weather history database for the weather conditions in past years. The results will help you decide how hot, cold, wet, or windy it might be!

Date:

Astronomy

Oct. 05, 2013 Rise Set
Actual Time 7:07 AM CDT 6:49 PM CDT
Civil Twilight 6:42 AM CDT 7:14 PM CDT
Nautical Twilight 6:14 AM CDT 7:42 PM CDT
Astronomical Twilight 5:45 AM CDT 8:11 PM CDT
Moon 7:43 AM CDT (10/5) 7:14 PM CDT (10/5)
Length of Visible Light 12h 31m
Length of Day
11h 42m
New Moon, 1% of the Moon is Illuminated
Oct 5
New Moon
Oct 11
First Quarter
Oct 18
Full
Oct 26
Last Quarter
Nov 3
New

Hourly Weather History & Observations

Time (CDT) Temp. Heat Index Dew Point Humidity Pressure Visibility Wind Dir Wind Speed Gust Speed Precip Events Conditions
12:15 AM 73.9 °F - 72.9 °F 96% 30.02 in 10.0 mi Calm Calm - N/A   Clear
12:35 AM 73.6 °F - 72.9 °F 98% 30.01 in 10.0 mi Calm Calm - N/A   Clear
12:55 AM 73.4 °F - 73.4 °F 100% 30.02 in 10.0 mi Calm Calm - N/A   Clear
1:15 AM 72.9 °F - 72.9 °F 100% 30.02 in 10.0 mi Calm Calm - N/A   Clear
1:35 AM 72.5 °F - 72.5 °F 100% 30.02 in 10.0 mi Calm Calm - N/A   Clear
1:55 AM 72.1 °F - 72.1 °F 100% 30.02 in 10.0 mi Calm Calm - N/A   Clear
2:15 AM 71.6 °F - 71.6 °F 100% 30.02 in 1.8 mi Calm Calm - N/A   Mist
2:35 AM 71.6 °F - 71.6 °F 100% 30.01 in 5.0 mi Calm Calm - N/A   Clear
2:55 AM 71.1 °F - 71.1 °F 100% 30.01 in 7.0 mi Calm Calm - N/A   Clear
3:15 AM 70.5 °F - 70.5 °F 100% 30.01 in 1.0 mi Calm Calm - N/A   Mostly Cloudy
3:35 AM 70.9 °F - 70.9 °F 100% 30.01 in 5.0 mi Calm Calm - N/A   Mostly Cloudy
3:55 AM 71.4 °F - 71.4 °F 100% 30.01 in 5.0 mi Calm Calm - N/A   Overcast
4:15 AM 72.5 °F - 72.5 °F 100% 30.02 in 4.0 mi Calm Calm - N/A   Overcast
4:35 AM 72.5 °F - 72.5 °F 100% 30.02 in 7.0 mi Calm Calm - N/A   Overcast
4:55 AM 72.5 °F - 72.5 °F 100% 30.02 in 10.0 mi Calm Calm - N/A   Overcast
5:15 AM 72.0 °F - 72.0 °F 100% 30.02 in 10.0 mi Calm Calm - N/A   Scattered Clouds
5:35 AM 71.6 °F - 71.6 °F 100% 30.02 in 7.0 mi Calm Calm - N/A   Scattered Clouds
5:55 AM 71.6 °F - 71.6 °F 100% 30.02 in 7.0 mi Calm Calm - N/A   Mostly Cloudy
6:15 AM 71.6 °F - 71.6 °F 100% 30.02 in 5.0 mi Calm Calm - N/A   Overcast
6:35 AM 71.2 °F - 71.2 °F 100% 30.02 in 3.0 mi Calm Calm - N/A   Overcast
6:55 AM 71.1 °F - 71.1 °F 100% 30.02 in 7.0 mi Calm Calm - N/A   Overcast
7:15 AM 70.9 °F - 70.9 °F 100% 30.02 in 5.0 mi Calm Calm - N/A   Overcast
7:35 AM 70.9 °F - 70.9 °F 100% 30.01 in 3.0 mi SSE 3.5 mph - N/A   Overcast
7:55 AM 71.6 °F - 71.6 °F 100% 30.01 in 2.0 mi SSE 3.5 mph - N/A   Overcast
8:15 AM 71.6 °F - 71.6 °F 100% 30.01 in 0.5 mi SSE 8.1 mph - N/A Fog Fog
8:35 AM 72.0 °F - 72.0 °F 100% 30.02 in 0.8 mi SSE 8.1 mph - N/A   Overcast
8:55 AM 72.7 °F - 72.7 °F 100% 30.03 in 3.0 mi SSE 5.8 mph - N/A   Overcast
9:15 AM 73.0 °F - 73.0 °F 100% 30.03 in 2.0 mi SSE 6.9 mph - N/A   Overcast
9:35 AM 73.4 °F - 73.4 °F 100% 30.04 in 5.0 mi South 8.1 mph - N/A   Overcast
9:55 AM 74.3 °F - 74.3 °F 100% 30.04 in 10.0 mi South 8.1 mph - N/A   Overcast
10:15 AM 75.0 °F - 75.0 °F 100% 30.04 in 10.0 mi South 8.1 mph - N/A   Overcast
10:35 AM 76.1 °F - 73.4 °F 91% 30.04 in 10.0 mi South 9.2 mph - N/A   Overcast
10:55 AM 77.5 °F - 73.2 °F 86% 30.04 in 10.0 mi South 5.8 mph - N/A   Overcast
11:15 AM 78.8 °F - 73.2 °F 83% 30.04 in 10.0 mi South 8.1 mph - N/A   Overcast
11:35 AM 80.6 °F 85.0 °F 72.7 °F 77% 30.03 in 10.0 mi SSE 8.1 mph - N/A   Mostly Cloudy
11:55 AM 82.6 °F 88.1 °F 72.9 °F 72% 30.03 in 10.0 mi SSE 9.2 mph - N/A   Mostly Cloudy
12:15 PM 82.0 °F 87.0 °F 72.3 °F 72% 30.02 in 10.0 mi South 6.9 mph - N/A   Mostly Cloudy
12:35 PM 85.1 °F 91.1 °F 72.1 °F 65% 30.01 in 10.0 mi South 8.1 mph 16.1 mph N/A   Scattered Clouds
12:55 PM 85.6 °F 91.5 °F 71.6 °F 63% 30.00 in 10.0 mi South 8.1 mph - N/A   Mostly Cloudy
1:15 PM 84.4 °F 90.0 °F 71.8 °F 66% 29.99 in 10.0 mi SSW 5.8 mph - N/A   Mostly Cloudy
1:35 PM 83.1 °F 88.4 °F 72.1 °F 69% 29.98 in 10.0 mi South 5.8 mph - N/A Rain Light Rain
1:55 PM 84.9 °F 91.8 °F 73.2 °F 68% 29.97 in 10.0 mi South 3.5 mph - N/A   Mostly Cloudy
2:15 PM 84.0 °F 89.6 °F 72.0 °F 67% 29.96 in 10.0 mi Calm Calm - N/A   Mostly Cloudy
2:35 PM 81.7 °F 87.6 °F 74.3 °F 78% 29.95 in 10.0 mi WSW 3.5 mph - N/A Rain Light Rain
2:55 PM 83.7 °F 90.4 °F 73.9 °F 72% 29.94 in 10.0 mi Calm Calm - N/A   Mostly Cloudy
3:15 PM 82.4 °F 89.2 °F 74.8 °F 78% 29.94 in 10.0 mi Calm Calm - N/A   Mostly Cloudy
3:35 PM 82.2 °F 89.3 °F 75.4 °F 80% 29.93 in 5.0 mi SSW 6.9 mph - 0.03 in Rain Heavy Rain
3:55 PM 81.3 °F 88.5 °F 76.8 °F 86% 29.93 in 5.0 mi SE 5.8 mph - 0.06 in Rain Light Rain
4:15 PM 79.5 °F - 76.8 °F 91% 29.93 in 7.0 mi Calm Calm - 0.01 in Rain Light Rain
4:35 PM 80.1 °F 85.2 °F 75.4 °F 86% 29.92 in 10.0 mi Calm Calm - 0.01 in Rain Light Rain
4:55 PM 79.2 °F - 76.1 °F 90% 29.91 in 10.0 mi Calm Calm - 0.01 in Thunderstorm Scattered Clouds
5:15 PM 78.1 °F - 76.6 °F 95% 29.91 in 10.0 mi Calm Calm - N/A Thunderstorm Scattered Clouds
5:35 PM 77.9 °F - 77.9 °F 100% 29.93 in 10.0 mi Calm Calm - N/A Rain , Thunderstorm Light Thunderstorms and Rain
5:55 PM 77.0 °F - 75.6 °F 95% 29.93 in 10.0 mi Calm Calm - N/A Rain , Thunderstorm Light Thunderstorms and Rain
6:15 PM 75.7 °F - 75.6 °F 99% 29.93 in 7.0 mi Calm Calm - 0.02 in Rain Rain
6:35 PM 75.6 °F - 75.6 °F 100% 29.94 in 7.0 mi Calm Calm - 0.07 in Rain Rain
6:55 PM 75.2 °F - 75.2 °F 100% 29.95 in 10.0 mi Calm Calm - 0.08 in Rain Rain
7:15 PM 75.0 °F - 75.0 °F 100% 29.94 in 10.0 mi Calm Calm - N/A   Overcast
7:35 PM 74.5 °F - 74.5 °F 100% 29.95 in 10.0 mi Calm Calm - N/A   Mostly Cloudy
7:55 PM 74.3 °F - 74.3 °F 100% 29.94 in 10.0 mi Calm Calm - N/A Thunderstorm Overcast
8:15 PM 74.3 °F - 74.3 °F 100% 29.94 in 10.0 mi Calm Calm - N/A Thunderstorm Mostly Cloudy
8:35 PM 73.9 °F - 73.9 °F 100% 29.94 in 10.0 mi Calm Calm - N/A   Mostly Cloudy
8:55 PM 73.9 °F - 73.9 °F 100% 29.96 in 10.0 mi Calm Calm - N/A   Mostly Cloudy
9:15 PM 73.9 °F - 73.9 °F 100% 29.96 in 10.0 mi Calm Calm - N/A   Mostly Cloudy
9:35 PM 74.1 °F - 74.1 °F 100% 29.97 in 10.0 mi South 3.5 mph - N/A   Mostly Cloudy
9:55 PM 74.3 °F - 74.3 °F 100% 29.97 in 10.0 mi SW 3.5 mph - N/A   Mostly Cloudy
10:15 PM 74.3 °F - 74.3 °F 100% 29.97 in 10.0 mi SSW 4.6 mph - N/A   Mostly Cloudy
10:35 PM 73.8 °F - 73.8 °F 100% 29.97 in 10.0 mi NW 5.8 mph - N/A Rain , Thunderstorm Light Thunderstorms and Rain
10:55 PM 73.4 °F - 73.4 °F 100% 29.98 in 10.0 mi West 4.6 mph - N/A   Overcast
11:15 PM 73.4 °F - 73.4 °F 100% 29.98 in 10.0 mi Calm Calm - N/A   Overcast
11:35 PM 73.4 °F - 73.4 °F 100% 29.96 in 10.0 mi WNW 3.5 mph - N/A Rain , Thunderstorm Light Thunderstorms and Rain
11:55 PM 73.6 °F - 73.6 °F 100% 29.96 in 10.0 mi WNW 5.8 mph - 0.01 in Rain Light Rain